Theta_e
349 355 355 351 354 355 352 354 358 360 363 362 362 360 357 356 356 354 352 351 348 352 351 350 353 363 357 362 357 356 353 349 345 349 362 365 362 362 363 360 360 358 356
348 349 352 352 351 349 350 352 361 362 363 363 363 360 359 358 358 355 352 351 349 350 351 349 348 360 357 361 360 361 357 355 349 348 359 360 358 362 365 363 360 357 358
352 348 350 348 347 347 349 353 357 359 365 364 363 362 361 359 358 356 353 352 353 350 351 353 352 354 355 355 356 354 357 357 353 350 350 354 358 364 362 362 362 361 359
349 345 344 343 343 344 347 351 353 362 367 367 367 365 364 362 361 358 356 355 353 351 353 352 350 352 353 356 356 355 354 356 356 351 351 349 351 362 361 360 356 359 359
345 343 343 346 347 348 348 352 358 362 367 369 368 368 367 364 361 362 359 355 352 351 351 350 351 351 347 344 346 353 356 353 352 352 354 348 346 352 355 361 357 364 360
345 345 351 360 363 360 361 363 365 366 367 368 367 367 365 361 344 340 345 350 352 351 351 354 354 344 345 340 340 341 347 353 353 353 345 352 353 349 351 355 359 353 350
352 359 363 365 363 363 363 363 362 362 362 362 362 361 358 358 338 336 339 345 350 350 352 352 345 342 343 347 343 339 340 338 342 355 349 349 347 349 352 352 356 357 354
357 355 357 358 356 355 356 356 359 359 358 358 358 358 357 356 338 334 336 348 349 349 350 347 343 346 343 344 346 350 351 357 357 351 355 356 350 353 350 349 351 356 363
345 344 344 345 344 344 343 344 347 346 346 347 348 349 350 352 333 330 335 349 347 344 342 342 343 342 332 331 344 346 348 355 341 339 340 338 334 337 340 347 350 351 354
343 343 344 344 343 341 342 344 344 345 342 341 341 341 336 341 332 327 331 343 347 345 343 341 332 333 327 325 340 348 346 351 348 351 351 345 339 339 334 349 353 350 356
344 343 342 342 340 342 342 343 342 341 340 339 337 338 338 338 340 329 325 342 341 342 346 347 345 326 321 319 321 347 345 350 349 351 349 341 339 344 347 349 355 356 352
342 341 341 341 338 335 341 341 340 338 336 335 335 333 333 338 329 328 324 323 334 341 340 341 346 326 320 318 322 327 323 327 345 348 344 346 341 344 346 346 352 355 356
340 340 339 339 338 338 337 336 333 336 332 331 328 329 329 331 334 324 319 318 321 331 338 335 324 320 318 323 321 321 322 337 342 343 342 341 346 346 350 351 353 355 354
338 339 339 337 335 336 334 332 331 330 329 329 328 328 329 331 332 333 333 333 325 329 330 333 331 328 323 329 332 336 339 342 340 344 344 344 346 345 343 346 347 350 351
337 336 334 332 332 330 330 328 327 331 326 326 327 327 326 327 328 322 322 329 330 326 323 330 328 328 332 336 337 339 339 341 339 342 345 345 343 344 344 346 346 347 347
332 330 328 327 326 325 325 327 318 313 311 307 306 312 323 315 312 309 306 305 306 306 321 325 326 327 328 330 334 335 339 337 340 343 346 346 344 341 342 345 345 344 343
329 329 327 323 326 326 327 327 325 323 310 309 307 306 305 308 305 303 302 302 302 303 319 324 325 326 327 328 328 333 334 336 345 341 342 344 345 342 339 342 344 344 341
330 318 326 327 327 328 327 325 323 321 319 320 313 309 308 304 302 301 301 301 318 310 318 322 325 326 327 327 327 329 333 335 337 339 340 342 344 343 338 339 341 341 341
330 328 329 328 328 323 322 322 320 318 316 317 318 314 313 304 301 302 300 316 320 321 323 324 325 325 327 329 328 329 334 334 335 338 339 340 340 344 341 338 339 324 329
329 323 320 322 322 320 319 317 316 316 316 316 315 316 317 315 315 315 318 318 318 319 322 324 325 326 327 330 330 332 334 335 336 337 338 339 340 343 341 340 339 339 339
323 322 319 319 318 316 316 315 314 312 312 310 311 312 304 309 309 311 312 313 314 317 319 322 325 326 327 331 331 331 331 333 336 337 341 342 338 339 340 340 339 340 340
319 318 316 315 315 314 313 311 309 309 308 308 308 309 303 308 310 311 312 313 313 314 317 319 324 327 328 330 332 333 333 334 336 337 339 338 339 339 339 339 337 338 338
315 314 313 313 311 308 308 308 307 307 306 306 307 307 307 308 308 309 310 311 311 312 314 316 317 326 331 332 334 332 330 333 338 336 337 337 337 337 337 337 336 335 332
314 313 312 308 307 306 305 305 304 302 304 305 305 306 306 306 307 310 311 311 311 312 313 314 314 320 331 331 332 335 335 333 338 338 338 337 337 333 335 335 334 333 333
313 309 307 306 305 304 303 304 304 304 305 305 304 303 303 303 303 304 309 311 311 312 313 314 316 316 323 326 329 328 316 293 311 307 334 335 334 337 336 334 334 333 335
309 308 306 305 303 303 303 303 304 304 303 302 302 301 300 300 301 302 308 311 311 312 313 310 310 311 314 316 314 298 288 287 299 289 314 326 328 331 332 330 329 326 324
Wind_Speed
6 8 10 8 9 9 9 9 9 9 7 10 10 9 10 10 10 10 10 9 9 10 8 8 11 7 6 6 7 8 7 7 9 7 6 5 7 9 7 9 9 10 9
6 8 10 8 11 11 10 11 10 7 7 9 10 9 9 10 9 11 10 8 7 6 5 2 9 5 10 7 6 10 9 9 9 12 6 5 7 6 7 9 8 9 10
6 7 9 10 12 12 11 9 7 7 8 8 9 10 9 9 9 10 10 10 9 8 7 6 9 7 9 6 6 7 8 6 9 8 7 4 3 3 4 7 8 10 9
7 8 9 9 11 10 9 6 8 7 8 8 9 9 9 9 8 9 10 10 9 9 9 10 9 8 11 11 8 9 8 8 7 8 8 5 5 5 5 6 7 8 9
6 7 7 6 6 7 8 10 9 7 8 8 7 8 9 8 7 8 9 9 9 10 10 9 9 10 11 11 8 8 9 7 8 9 8 6 5 5 6 5 9 6 9
6 5 6 5 5 5 5 5 6 7 7 6 7 7 8 6 4 6 10 8 9 10 10 9 8 7 8 11 12 13 11 9 10 9 4 6 8 4 3 5 8 6 9
4 3 1 3 4 5 5 5 6 6 5 5 5 6 8 8 6 8 9 10 9 10 10 9 7 5 4 6 7 10 11 13 15 9 7 6 2 1 3 6 9 9 10
6 5 5 5 5 4 5 5 5 4 4 4 5 5 6 6 6 9 9 9 9 10 10 10 10 8 6 5 7 7 8 9 10 9 13 8 5 4 3 5 11 12 9
8 6 5 4 4 3 3 4 4 4 5 5 5 6 6 7 5 9 7 8 9 10 9 10 11 10 9 8 7 9 10 7 4 8 9 9 4 8 10 8 7 9 9
5 5 4 2 2 3 3 4 3 4 6 6 7 7 8 9 6 8 7 7 10 8 8 10 13 15 12 7 8 9 11 8 5 6 7 7 7 11 15 12 8 11 8
6 4 1 2 3 4 4 4 6 6 7 8 9 8 9 9 8 7 9 8 9 9 9 9 9 11 14 12 11 10 11 8 5 6 6 5 6 5 6 9 11 9 9
5 4 4 4 4 4 6 6 6 7 8 9 9 9 8 8 9 8 10 11 10 9 11 10 9 9 13 12 8 13 10 6 7 8 8 7 6 5 5 7 9 10 9
5 5 5 6 5 5 7 8 8 8 8 10 10 10 10 9 8 8 9 11 13 8 9 9 8 9 11 12 15 13 8 7 8 8 9 8 5 3 3 5 8 9 9
5 6 5 6 7 7 7 7 8 9 10 10 11 11 11 10 10 9 9 8 10 10 11 10 8 8 10 11 8 9 8 9 9 10 10 8 6 7 7 7 7 6 6
5 5 6 6 8 9 8 9 9 9 9 10 10 11 12 12 12 10 11 13 12 10 7 11 12 11 11 9 8 8 8 8 9 10 10 10 9 9 9 8 9 7 7
5 6 6 7 8 8 8 9 9 13 14 14 16 13 13 14 17 17 16 16 16 8 10 12 12 12 12 13 12 11 10 10 10 10 11 11 11 11 10 9 9 9 9
6 8 7 6 8 9 9 10 11 10 13 17 18 19 18 21 19 18 18 17 8 9 11 13 13 13 13 12 13 13 12 11 11 10 11 11 12 12 10 10 10 10 9
8 8 7 7 8 9 9 10 11 12 14 14 11 14 14 15 17 18 19 7 12 9 11 14 14 13 13 13 13 14 13 12 11 11 12 12 11 12 12 11 10 10 9
7 6 7 7 7 9 11 11 12 14 14 14 14 14 13 12 13 17 12 10 14 14 13 13 12 13 13 13 13 13 14 12 11 11 11 12 12 11 12 12 11 11 9
6 4 6 8 9 10 11 12 12 13 13 13 12 13 13 13 13 14 12 11 9 9 12 14 14 13 12 12 12 12 12 12 12 12 12 11 11 11 12 13 13 12 10
5 7 7 9 9 10 11 12 12 12 12 10 13 14 13 12 12 12 12 11 11 11 11 11 13 13 12 12 12 12 12 11 12 12 10 9 11 12 11 11 11 11 11
6 7 8 9 10 10 11 11 11 10 10 11 12 13 15 11 12 13 12 12 11 11 10 11 12 12 12 12 11 10 10 11 12 11 11 10 9 10 10 10 10 10 9
7 8 9 9 9 11 10 10 9 9 10 11 12 12 11 11 11 12 12 11 11 10 10 10 11 13 11 11 9 8 9 9 10 7 8 8 8 8 8 8 10 10 10
7 9 10 10 9 9 8 8 8 10 10 10 11 11 11 11 12 14 11 9 10 9 9 8 9 17 14 10 9 8 8 7 7 7 9 9 8 7 8 8 8 10 10
8 9 10 9 8 8 8 8 8 9 9 10 10 10 11 11 12 12 12 8 7 9 8 7 4 9 6 6 4 6 6 8 6 9 7 10 10 13 10 9 8 8 12
8 9 8 7 6 7 7 8 8 9 9 9 9 10 11 11 11 11 9 6 6 5 5 2 3 5 5 4 5 6 6 7 8 9 10 10 11 9 9 8 9 3 4
Wind_Direction
167 201 197 203 202 221 234 246 252 259 247 250 248 240 240 240 242 244 252 270 276 281 257 240 249 251 246 224 233 242 228 212 248 272 262 256 232 223 217 213 218 221 219
222 213 220 197 213 221 225 245 245 258 251 252 246 238 244 247 245 241 254 258 250 272 295 238 262 285 263 245 234 234 233 216 233 250 253 231 229 230 225 213 209 221 224
230 232 225 227 228 235 237 246 266 267 254 244 242 243 241 243 246 244 248 253 243 248 257 255 273 274 273 282 259 243 251 232 218 242 251 235 266 201 219 225 229 222 224
222 235 234 231 231 235 246 273 280 263 260 253 244 245 246 244 241 246 245 249 247 242 247 266 283 275 277 276 265 257 250 247 239 241 243 225 245 247 214 230 228 228 228
241 247 258 283 295 289 287 283 276 274 268 264 264 248 244 247 250 248 252 255 258 253 250 256 255 255 268 264 269 264 265 249 240 235 239 237 229 239 224 226 244 237 227
228 259 276 292 333 318 302 292 283 278 277 271 261 262 262 262 294 230 251 263 271 269 274 273 266 254 262 256 249 246 259 257 250 245 241 229 251 231 273 246 256 227 237
224 237 40 37 40 22 4 355 351 339 329 313 304 299 296 288 281 249 246 266 267 266 266 269 269 261 256 272 250 241 242 234 245 264 242 212 195 152 316 293 248 243 245
129 109 95 90 84 59 41 24 5 349 333 325 326 309 295 296 278 271 259 267 264 263 257 257 251 261 268 275 274 265 274 255 228 210 232 223 208 162 305 296 269 251 248
119 102 88 84 76 64 45 18 357 338 332 330 322 312 305 302 244 256 272 277 270 261 257 248 246 255 273 203 274 275 283 264 169 220 243 260 273 73 334 270 252 242 241
123 124 126 104 33 339 328 310 297 297 296 301 300 300 300 296 279 258 237 269 274 269 257 250 230 247 263 204 257 270 268 253 216 197 241 254 248 218 192 232 221 241 228
153 154 198 264 287 284 291 293 298 299 301 294 295 297 290 289 293 261 249 266 273 280 273 261 252 222 240 245 227 255 254 288 222 245 231 230 236 220 193 197 238 238 245
177 206 224 248 267 292 285 291 284 284 282 286 286 288 288 283 265 265 237 244 274 276 276 278 279 221 247 252 231 245 250 259 260 258 252 238 236 192 194 230 233 237 246
212 233 263 285 288 289 290 292 294 289 292 294 293 294 293 291 288 242 247 247 249 250 271 287 316 288 255 264 249 245 225 235 233 240 249 254 247 248 277 215 228 225 232
250 274 287 294 303 298 292 291 289 290 293 293 294 295 297 294 288 286 284 279 250 243 239 262 285 282 276 269 281 238 233 231 225 234 243 247 225 209 220 223 228 215 223
259 285 295 296 297 299 288 293 293 289 286 293 293 294 294 290 286 287 277 285 286 300 311 283 278 272 260 246 236 243 241 233 228 235 240 237 225 211 213 215 223 225 224
284 290 299 301 295 295 295 295 243 239 267 263 259 256 280 271 279 276 267 264 263 271 276 269 266 265 262 261 259 253 237 226 231 238 238 235 230 221 217 211 217 221 223
285 289 291 287 297 298 298 299 300 290 232 243 255 257 245 256 274 273 271 267 254 175 256 258 257 257 256 258 259 255 253 245 227 227 237 237 234 230 205 209 205 222 230
278 261 282 286 290 292 293 296 296 296 298 299 269 250 268 264 264 264 265 258 270 215 250 257 254 251 249 254 254 251 248 247 243 238 234 232 232 229 223 221 221 225 224
285 293 299 295 295 297 293 290 290 292 292 294 297 292 289 270 272 270 264 257 270 270 265 253 243 252 253 251 250 248 249 250 245 240 237 239 233 226 229 228 237 237 231
289 276 290 297 295 292 291 291 291 292 296 298 297 294 299 308 304 301 296 284 263 263 270 269 263 258 251 251 249 247 249 247 245 237 238 239 233 231 230 231 238 241 213
306 305 308 289 292 293 295 294 297 297 292 290 288 291 293 288 286 284 282 276 273 270 274 273 264 262 254 248 248 246 246 248 246 245 239 233 237 241 231 239 244 237 239
312 309 303 300 301 299 302 303 292 290 285 287 292 293 284 279 278 277 278 279 276 270 273 275 273 256 246 244 241 236 247 243 239 238 235 233 235 236 235 233 229 237 237
307 310 306 303 306 302 295 296 292 289 293 293 293 294 294 289 283 275 272 270 270 267 268 267 279 265 247 247 244 246 239 241 244 263 255 248 244 243 243 245 243 230 226
318 316 321 316 310 306 303 301 296 290 291 299 300 300 301 299 300 288 270 268 266 261 261 268 277 270 250 237 261 243 228 244 257 250 246 248 246 226 236 233 230 234 234
339 331 318 316 318 310 305 307 307 308 309 310 310 309 309 307 302 298 293 268 267 266 265 268 289 314 353 317 246 255 319 353 297 315 263 242 238 244 242 241 239 235 238
333 333 329 319 316 316 318 317 322 324 324 324 324 321 318 315 311 305 294 271 271 271 286 6 10 22 22 23 19 348 314 291 275 242 250 247 249 244 247 238 221 190 172